Overview Statistics Trail Chart Weather Telemetry Raw packets
 

This is the latest recevied weather packets stored in our database for station/object K4WCH. If no packets are shown the sender has not sent any weather packets the latest 10 day(s).

<< 28 29 30 31 32 33 34 >>
Time Temp. Humidity Pressure Rain* Wind** Luminosity Snow
1788468497 28.33° C 85% 1013.5 hPa 0 mm - 229 W/m² -
1788468193 28.33° C 85% 1013.3 hPa 0 mm - 225 W/m² -
1788467888 28.33° C 84% 1013.4 hPa 0 mm - 221 W/m² -
1788467584 28.33° C 82% 1013.5 hPa 0 mm - 222 W/m² -
1788467283 28.33° C 82% 1013.6 hPa 0 mm - 223 W/m² -
1788466980 27.78° C 81% 1013.9 hPa 0 mm - 227 W/m² -
1788466678 27.78° C 80% 1014 hPa 0 mm - 234 W/m² -
1788466374 27.78° C 80% 1014 hPa 0 mm - 241 W/m² -
1788466073 27.78° C 78% 1014 hPa 0 mm - 240 W/m² -
1788465769 27.78° C 77% 1014.2 hPa 0 mm - 227 W/m² -
1788465469 27.78° C 79% 1014 hPa 0 mm - 220 W/m² -
1788465165 27.78° C 82% 1014.1 hPa 0 mm - 206 W/m² -
1788464865 27.78° C 86% 1014.4 hPa 0 mm - 202 W/m² -
1788464561 27.78° C 87% 1014.4 hPa 0 mm - 193 W/m² -
1788464256 27.78° C 87% 1014.4 hPa 0 mm - 187 W/m² -
1788463952 27.78° C 88% 1014.4 hPa 0 mm - 185 W/m² -
1788463648 27.78° C 88% 1014.4 hPa 0 mm - 183 W/m² -
1788463343 27.78° C 87% 1014.3 hPa 0 mm - 175 W/m² -
1788463039 27.78° C 88% 1014.3 hPa 0 mm - 173 W/m² -
1788462735 27.78° C 87% 1014.5 hPa - - 165 W/m² -
1788462429 27.22° C 87% 1014.6 hPa - - 151 W/m² -
1788462129 27.22° C 87% 1014.6 hPa - - 137 W/m² -
1788461824 27.78° C 85% 1014.5 hPa - - 125 W/m² -
1788461518 28.33° C 86% 1014.6 hPa - - 132 W/m² -
1788461215 28.33° C 85% 1014.6 hPa - - 167 W/m² -

* Rain latest hour (hover to see other rain measurements)
** Current wind speed in m/s (hover to see current wind gust speed)